This demonstration page uses our WeatherBlox Daily Observations layout. Learn more.

40.92945, -100.16068

Hourly Observations for December 5, 2018

Temp ( °F °C ) Dew Point ( °F °C ) Humidity (%) Winds ( mph kmh ) Pressure ( in mb ) Visibility ( mi km ) Precip ( " mm )
12:15 am 00:15 Clear 16 -8.8 14 -10.2 90 90 NW 3 6 30.39 1029 10 16.09344 0 0
12:35 am 00:35 Clear 15 -9.3 13 -10.8 89 89 NNW 5 7 30.36 1028 10 16.09344 0 0
12:55 am 00:55 Clear 13 -10.4 10 -12 88 88 NNW 5 7 30.39 1029 10 16.09344 0 0
1:15 am 01:15 Clear 15 -9.5 12 -10.9 90 90 WNW 6 9 30.39 1029 10 16.09344 0 0
1:35 am 01:35 Clear 14 -9.9 11 -11.6 88 88 WNW 5 7 30.39 1029 10 16.09344 0 0
1:55 am 01:55 Clear 14 -10 11 -11.6 88 88 NW 5 7 30.39 1029 10 16.09344 0 0
2:15 am 02:15 Clear 13 -10.3 11 -11.8 89 89 NW 6 9 30.39 1029 10 16.09344 0 0
2:35 am 02:35 Clear 13 -10.4 11 -11.8 90 90 NW 7 11 30.39 1029 10 16.09344 0 0
2:55 am 02:55 Clear 12 -11 9 -12.6 88 88 WNW 3 6 30.39 1029 10 16.09344 0 0
3:15 am 03:15 Clear 13 -10.4 10 -12.1 87 87 NW 7 11 30.39 1029 10 16.09344 0 0
3:35 am 03:35 Clear 11 -11.4 8 -13.1 87 87 WNW 5 7 30.39 1029 10 16.09344 0 0
3:55 am 03:55 Clear 12 -11.2 9 -12.9 87 87 W 5 7 30.39 1029 10 16.09344 0 0
4:15 am 04:15 Clear 12 -11 9 -12.6 88 88 W 6 9 30.39 1029 10 16.09344 0 0
4:35 am 04:35 Clear 12 -11.1 9 -12.8 87 87 W 5 7 30.36 1028 10 16.09344 0 0
4:55 am 04:55 Clear 11 -11.5 8 -13.1 88 88 NW 5 7 30.36 1028 10 16.09344 0 0
5:15 am 05:15 Clear 11 -11.9 8 -13.6 87 87 WNW 3 6 30.36 1028 10 16.09344 0 0
5:35 am 05:35 Clear 11 -11.7 8 -13.3 88 88 W 5 7 30.36 1028 10 16.09344 0 0
5:55 am 05:55 Clear 11 -11.5 8 -13.2 87 87 WNW 6 9 30.36 1028 10 16.09344 0 0
6:15 am 06:15 Clear 11 -11.8 7 -13.7 86 86 NNW 3 6 30.36 1028 10 16.09344 0 0
6:35 am 06:35 Clear 10 -12.2 7 -14 87 87 Calm 30.36 1028 10 16.09344 0 0
6:55 am 06:55 Clear 11 -11.5 8 -13.2 87 87 NW 3 6 30.36 1028 10 16.09344 0 0
7:15 am 07:15 Clear 11 -11.5 8 -13.5 85 85 NW 5 7 30.36 1028 10 16.09344 0 0
7:35 am 07:35 Clear 11 -11.8 7 -13.8 85 85 WNW 6 9 30.36 1028 10 16.09344 0 0
7:55 am 07:55 Sunny 11 -11.7 7 -14 83 83 W 5 7 30.33 1027 10 16.09344 0 0
8:15 am 08:15 Sunny 10 -12.2 7 -14.1 86 86 W 5 7 30.33 1027 10 16.09344 0 0
8:35 am 08:35 Sunny 12 -11.3 8 -13.3 85 85 W 5 7 30.33 1027 10 16.09344 0 0
8:55 am 08:55 Sunny 14 -10 11 -11.9 86 86 WNW 7 11 30.33 1027 10 16.09344 0 0
9:15 am 09:15 Sunny 16 -8.9 12 -11.2 84 84 W 3 6 30.3 1026 10 16.09344 0 0
9:35 am 09:35 Sunny 17 -8.1 13 -10.5 83 83 W 3 6 30.3 1026 10 16.09344 0 0
9:55 am 09:55 Sunny 18 -7.7 14 -10.2 82 82 Calm 30.3 1026 10 16.09344 0 0
10:15 am 10:15 Sunny 19 -7.2 14 -9.9 81 81 Calm 30.3 1026 10 16.09344 0 0
10:35 am 10:35 Sunny 21 -6.2 17 -8.6 83 83 N 3 6 30.27 1025 10 16.09344 0 0
10:55 am 10:55 Sunny 23 -5 17 -8.1 79 79 NNW 6 9 30.27 1025 10 16.09344 0 0
11:15 am 11:15 Sunny 25 -4.1 18 -7.6 77 77 NNW 5 7 30.24 1024 10 16.09344 0 0
11:35 am 11:35 Sunny 26 -3.1 19 -7.1 74 74 WNW 5 7 30.21 1023 10 16.09344 0 0
11:55 am 11:55 Sunny 28 -2.5 20 -6.6 74 74 WNW 5 7 30.21 1023 10 16.09344 0 0
12:15 pm 12:15 Sunny 30 -1.3 21 -6.1 70 70 WNW 6 9 30.15 1021 10 16.09344 0 0
12:35 pm 12:35 Sunny 31 -0.4 22 -5.7 68 68 WNW 3 6 30.15 1021 10 16.09344 0 0
12:55 pm 12:55 Sunny 31 -0.3 22 -5.4 69 69 WNW 8 13 30.15 1021 10 16.09344 0 0
1:15 pm 13:15 Sunny 31 -0.5 23 -5 72 72 WNW 7 11 30.15 1021 10 16.09344 0 0
1:35 pm 13:35 Sunny 32 0 24 -4.7 71 71 WNW 7 11 30.15 1021 10 16.09344 0 0
1:55 pm 13:55 Sunny 33 0.5 23 -5.1 66 66 W 7 11 30.15 1021 10 16.09344 0 0
2:15 pm 14:15 Sunny 33 0.5 23 -4.8 68 68 NW 7 11 30.15 1021 10 16.09344 0 0
2:35 pm 14:35 Sunny 34 1 24 -4.6 67 67 NW 6 9 30.12 1020 10 16.09344 0 0
2:55 pm 14:55 Sunny 34 1 21 -6.3 59 59 NW 10 17 30.12 1020 10 16.09344 0 0
3:15 pm 15:15 Sunny 33 0.7 23 -5 66 66 NNW 5 7 30.15 1021 10 16.09344 0 0
3:35 pm 15:35 Sunny 33 0.8 22 -5.4 64 64 NW 7 11 30.15 1021 10 16.09344 0 0
3:55 pm 15:55 Sunny 33 0.5 23 -5 67 67 NNW 7 11 30.15 1021 10 16.09344 0 0
4:15 pm 16:15 Sunny 33 0.6 23 -5 66 66 NNW 7 11 30.15 1021 10 16.09344 0 0
4:35 pm 16:35 Sunny 32 0 24 -4.2 74 74 NNW 5 7 30.15 1021 10 16.09344 0 0
4:55 pm 16:55 Sunny 32 -0.1 22 -5.6 67 67 N 8 13 30.15 1021 10 16.09344 0 0
5:15 pm 17:15 Clear 31 -0.6 21 -6 67 67 N 8 13 30.15 1021 10 16.09344 0 0
5:35 pm 17:35 Clear 30 -1 20 -6.6 66 66 N 6 9 30.15 1021 10 16.09344 0 0
5:55 pm 17:55 Clear 29 -1.5 20 -6.5 69 69 NNW 7 11 30.15 1021 10 16.09344 0 0
6:15 pm 18:15 Clear 29 -1.7 20 -6.6 70 70 NW 6 9 30.18 1022 10 16.09344 0 0
6:35 pm 18:35 Clear 28 -2.5 20 -6.9 72 72 NNW 8 13 30.21 1023 10 16.09344 0 0
6:55 pm 18:55 Partly Cloudy 28 -2.5 21 -6.2 76 76 NNW 5 7 30.21 1023 10 16.09344 0 0
7:15 pm 19:15 Mostly Cloudy 28 -2.3 21 -6.1 75 75 NNW 6 9 30.24 1024 10 16.09344 0 0
7:35 pm 19:35 Mostly Cloudy 28 -2.4 21 -6.1 76 76 NNW 7 11 30.24 1024 10 16.09344 0 0
7:55 pm 19:55 Partly Cloudy 29 -1.8 21 -6 73 73 NNW 8 13 30.24 1024 10 16.09344 0 0
8:15 pm 20:15 Partly Cloudy 28 -2 21 -6.1 74 74 N 7 11 30.24 1024 10 16.09344 0 0
8:35 pm 20:35 Mostly Cloudy 30 -1.3 20 -6.4 69 69 N 10 17 30.21 1023 10 16.09344 0 0
8:55 pm 20:55 Cloudy 30 -1.1 21 -6.1 69 69 N 13 20 30.21 1023 10 16.09344 0 0
9:15 pm 21:15 Mostly Cloudy 30 -1 21 -6 69 69 N 13 20 30.21 1023 10 16.09344 0 0
9:35 pm 21:35 Mostly Cloudy 30 -1.2 21 -6 70 70 N 16 26 30.27 1025 10 16.09344 0 0
9:55 pm 21:55 Cloudy 29 -1.5 22 -5.7 73 73 N 15 24 30.27 1025 10 16.09344 0 0
10:15 pm 22:15 Mostly Cloudy 29 -1.6 22 -5.6 74 74 N 16 26 30.27 1025 10 16.09344 0 0
10:35 pm 22:35 Partly Cloudy 29 -1.6 22 -5.5 75 75 N 17 28 30.3 1026 10 16.09344 0 0
10:55 pm 22:55 Partly Cloudy 29 -1.6 22 -5.5 75 75 NNE 16 26 30.3 1026 10 16.09344 0 0
11:15 pm 23:15 Partly Cloudy 29 -1.7 22 -5.3 77 77 N 14 22 30.3 1026 10 16.09344 0 0
11:35 pm 23:35 Partly Cloudy 29 -1.8 23 -5.2 78 78 N 15 24 30.3 1026 10 16.09344 0 0
11:55 pm 23:55 Partly Cloudy 29 -1.8 23 -5.2 78 78 N 12 19 30.33 1027 10 16.09344 0 0

Powered by AerisWeather